Torna al catalogo

FENGYUN 1C DEB

AttivoPO
NORAD 30656·DEBRIS·🇨🇳 China

Lanciato May 10, 1999 da Taiyuan Satellite Launch Center

Loading…

Prossimi Passaggi (prossime 24 ore)

TLE

AggiornatoSource: Space-Track

Epoca: Sep 14, 2026, 05:15 UTC

1 30656U 99025APN 26257.21911733  .00003833  00000-0  10120-2 0  9997
2 30656  99.0190  94.5372 0030725 349.4292  10.6250 14.49277469 10659

Traccia FENGYUN 1C DEB in tempo reale con AllMySat

Download on the App Store